Weather History for Lincoln, NE

Change the Weather History Date:

Monday, January 1, 2001

  Actual Average Record
Temperature  
Mean Temperature 4 °F 25 °F  
Max Temperature 15 °F 35 °F 63 °F (1939)
Min Temperature -6 °F 14 °F -26 °F (1974)
Degree Days  
Heating Degree Days 60 40  
Month to date heating degree days 40  
Since 1 July heating degree days 2485  
Cooling Degree Days 0 0  
Month to date cooling degree days 0  
Year to date cooling degree days 0  
Moisture  
Dew Point -1 °F    
Average Humidity 80    
Maximum Humidity 92    
Minimum Humidity 72    
Precipitation  
Precipitation 0.00 in 0.02 in 0.40 in (1966)
Month to date precipitation 0.02  
Year to date precipitation 0.02  
Snow  
Snow 0.00 in 0.20 in - ()
Month to date snowfall 0.2  
Since 1 July snowfall 8.9  
Snow Depth 10.00 in    
Sea Level Pressure  
Sea Level Pressure 30.58 in    
Wind  
Wind Speed 5 mph (NNW)    
Max Wind Speed 9 mph    
Max Gust Speed -    
Visibility 10 miles    
Events Snow    
T = Trace of Precipitation, MM = Missing Value Source: NWS Daily Summary

Daily Weather History Graph

Daily Weather History Graph

Search for Another Location

Airport:

Trip Planner

Search our weather history database for the weather conditions in past years. The results will help you decide how hot, cold, wet, or windy it might be!

Date:

Astronomy

Jan. 01, 2001 Rise Set
Actual Time 7:51 AM CST 5:10 PM CST
Civil Twilight 7:20 AM CST 5:41 PM CST
Nautical Twilight 6:46 AM CST 6:15 PM CST
Astronomical Twilight 6:13 AM CST 6:48 PM CST
Moon 12:00 PM CST 11:49 PM CST
Length of Visible Light 10h 20m
Length of Day
9h 18m
Waxing Crescent, 38% of the Moon is Illuminated
Jan 1
Waxing Crescent
Jan 2
First Quarter
Jan 9
Full
Jan 16
Last Quarter
Jan 24
New

Hourly Weather History & Observations

Time (CST) Temp. Windchill Dew Point Humidity Pressure Visibility Wind Dir Wind Speed Gust Speed Precip Events Conditions
12:54 AM -5.1 °F -15.8 °F -9.9 °F 80% 30.53 in 10.0 mi NNW 4.6 mph - N/A   Scattered Clouds
1:54 AM -4.0 °F -16.3 °F -9.9 °F 76% 30.54 in 10.0 mi NNW 5.8 mph - N/A   Mostly Cloudy
2:54 AM -0.0 °F -14.2 °F -6.0 °F 76% 30.55 in 10.0 mi NW 8.1 mph - N/A   Overcast
3:54 AM -0.9 °F -15.3 °F -7.1 °F 75% 30.55 in 10.0 mi NNW 8.1 mph - N/A   Partly Cloudy
4:54 AM -2.0 °F -12.2 °F -8.0 °F 76% 30.55 in 10.0 mi WNW 4.6 mph - N/A   Clear
5:54 AM -2.9 °F -15.0 °F -8.0 °F 79% 30.56 in 10.0 mi NW 5.8 mph - N/A   Clear
6:54 AM -6.0 °F - -9.0 °F 87% 30.58 in 10.0 mi Calm Calm - N/A   Clear
7:41 AM -5.8 °F -16.7 °F -9.4 °F 84% 30.48 in 10.0 mi WNW 4.6 mph - N/A   Mostly Cloudy
7:54 AM -4.0 °F -14.6 °F -8.0 °F 83% 30.59 in 10.0 mi West 4.6 mph - N/A   Mostly Cloudy
8:23 AM -2.2 °F -14.2 °F -5.8 °F 85% 30.49 in 10.0 mi NNW 5.8 mph - N/A   Scattered Clouds
8:54 AM -0.9 °F -12.7 °F -7.1 °F 75% 30.60 in 10.0 mi NW 5.8 mph - N/A   Partly Cloudy
9:20 AM -0.4 °F -8.3 °F -7.6 °F 72% 30.51 in 10.0 mi NNW 3.5 mph - N/A   Mostly Cloudy
9:54 AM 1.0 °F -6.7 °F -6.0 °F 72% 30.62 in 10.0 mi NNW 3.5 mph - 0.00 in Snow Light Snow
10:54 AM 5.0 °F -6.9 °F -0.9 °F 76% 30.62 in 9.0 mi NNW 6.9 mph - 0.00 in Snow Light Snow
11:02 AM 6.8 °F -3.5 °F -0.4 °F 72% 30.53 in 9.0 mi North 5.8 mph - 0.00 in Snow Light Snow
11:10 AM 6.8 °F -5.9 °F -0.4 °F 72% 30.53 in 9.0 mi North 8.1 mph - 0.00 in Snow Light Snow
11:54 AM 8.1 °F -4.3 °F 3.0 °F 80% 30.62 in 9.0 mi NNE 8.1 mph - 0.00 in Snow Light Snow
12:10 PM 8.6 °F -4.7 °F 3.2 °F 79% 30.51 in 10.0 mi NNE 9.2 mph - 0.00 in Snow Light Snow
12:41 PM 10.4 °F -0.4 °F 5.0 °F 79% 30.51 in 10.0 mi NNE 6.9 mph - 0.00 in Snow Light Snow
12:54 PM 10.9 °F -0.8 °F 5.0 °F 77% 30.60 in 9.0 mi NNE 8.1 mph - 0.00 in Snow Light Snow
1:54 PM 12.0 °F 1.5 °F 7.0 °F 80% 30.59 in 9.0 mi North 6.9 mph - 0.00 in Snow Light Snow
2:29 PM 12.2 °F 4.3 °F 8.6 °F 85% 30.50 in 9.0 mi NNW 4.6 mph - 0.00 in Snow Light Snow
2:54 PM 14.0 °F 3.9 °F 9.0 °F 80% 30.59 in 10.0 mi North 6.9 mph - 0.00 in Snow Light Snow
3:54 PM 15.1 °F 5.2 °F 9.0 °F 77% 30.59 in 10.0 mi NE 6.9 mph - 0.00 in Snow Light Snow
4:19 PM 12.2 °F 4.3 °F 8.6 °F 85% 30.51 in 10.0 mi North 4.6 mph - 0.00 in   Scattered Clouds
4:54 PM 12.9 °F 6.9 °F 8.1 °F 81% 30.60 in 10.0 mi North 3.5 mph - 0.00 in   Partly Cloudy
5:54 PM 10.0 °F - 5.0 °F 80% 30.62 in 10.0 mi Calm Calm - N/A   Clear
6:54 PM 3.0 °F -4.4 °F -0.0 °F 87% 30.66 in 10.0 mi North 3.5 mph - N/A   Partly Cloudy
7:54 PM 1.9 °F -7.6 °F -0.9 °F 88% 30.66 in 9.0 mi WNW 4.6 mph - 0.00 in Snow Light Snow
8:39 PM 1.4 °F -8.3 °F -2.2 °F 85% 30.57 in 10.0 mi West 4.6 mph - 0.00 in Snow Light Snow
8:54 PM -0.9 °F - -5.1 °F 83% 30.68 in 10.0 mi Calm Calm - 0.00 in   Scattered Clouds
9:07 PM -2.2 °F -12.5 °F -7.6 °F 78% 30.58 in 10.0 mi NNE 4.6 mph - N/A   Mostly Cloudy
9:54 PM 1.9 °F -7.6 °F -2.0 °F 83% 30.68 in 9.0 mi North 4.6 mph - 0.00 in Snow Light Snow
10:07 PM 1.4 °F -8.3 °F -0.4 °F 92% 30.57 in 8.0 mi North 4.6 mph - 0.00 in Snow Light Snow
10:54 PM 1.9 °F -5.6 °F -2.0 °F 83% 30.68 in 9.0 mi NNW 3.5 mph - 0.00 in Snow Light Snow
11:54 PM 3.0 °F - -0.9 °F 84% 30.70 in 9.0 mi Calm Calm - 0.00 in Snow Light Snow